Location: Ravencliff
(37.6982°N, 81.4812°W)
Time: 20:23:57
(UTC+00:00)

ACS3 Solar Sail - Pass Details

Date: 26 April 2026
Orbit: 894 x 947 km, 97.2° (Epoch: 12 May)

Event Time Altitude Azimuth Distance (km) Brightness Sun altitude
Rises 07:02:53 0° 4° (N) 3,562 5.6 -33.7°
Reaches altitude 10° 07:05:22 10° 359° (N) 2,624 4.7 -33.5°
Enters shadow 07:09:24 38° 328° (NNW) 1,373 2.7 -33.1°
